DW7637 Weather Reports


Display with metric or nautical units.
time (UTC)temp
F
wind
direction
speed
MPH
gust
MPH
rain 1hr
in
rain 24hr
in
rain mn
in
humidity
%
barometer
mb
20260509013008 65 249 5.0 10.0 0.00 0.00 0.00 87 1012.9
20260509011509 65 208 5.0 9.0 0.00 0.00 0.00 86 1012.9
20260509010016 66 224 5.0 10.0 0.00 0.00 0.00 85 1012.9
20260509004507 66 207 5.0 10.0 0.00 0.00 0.00 85 1012.9
20260509003010 66 228 5.0 11.0 0.00 0.00 0.00 84 1012.9
20260509001504 66 257 7.0 10.0 0.00 0.00 0.00 84 1013.0
20260509000002 68 259 4.0 9.0 0.00 0.00 0.00 83 1013.0
20260508234601 67 256 4.0 9.0 0.00 0.00 0.00 84 1013.1
20260508233059 67 256 5.0 11.0 0.00 0.00 0.00 83 1013.3
20260508231557 67 252 4.0 12.0 0.00 0.00 0.00 83 1013.3
20260508230100 67 294 5.0 9.0 0.00 0.00 0.00 83 1013.4
20260508224553 67 264 5.0 10.0 0.00 0.00 0.00 83 1013.7
20260508223055 68 290 4.0 10.0 0.00 0.00 0.00 81 1013.9
20260508221549 68 205 5.0 10.0 0.00 0.00 0.00 80 1014.1
20260508220049 68 266 4.0 12.0 0.00 0.00 0.00 83 1014.2
20260508214554 68 239 3.0 9.0 0.00 0.00 0.00 82 1014.3
20260508213045 68 258 3.0 9.0 0.00 0.00 0.00 81 1014.4
20260508211544 68 225 5.0 9.0 0.00 0.00 0.00 80 1014.5
20260508210042 68 258 5.0 9.0 0.00 0.00 0.00 82 1014.7
20260508204544 67 257 4.0 9.0 0.00 0.00 0.00 83 1014.7
20260508203037 67 328 5.0 9.0 0.00 0.00 0.00 83 1015.0
20260508201538 67 201 4.0 8.0 0.00 0.00 0.00 83 1015.1
20260508200034 67 248 4.0 8.0 0.00 0.00 0.00 84 1015.3
20260508194531 66 226 3.0 9.0 0.00 0.00 0.00 86 1015.4
20260508193029 66 280 3.0 7.0 0.00 0.00 0.00 87 1015.5
20260508191532 65 229 4.0 7.0 0.00 0.00 0.00 88 1015.6
20260508190029 64 251 3.0 7.0 0.00 0.00 0.00 89 1015.8
20260508184528 64 283 4.0 7.0 0.00 0.00 0.00 89 1016.0
20260508183024 64 207 2.0 5.0 0.00 0.00 0.00 90 1016.0
20260508181524 64 290 2.0 7.0 0.00 0.00 0.00 90 1016.0
20260508180025 64 243 2.0 5.0 0.00 0.00 0.00 90 1016.2
20260508174520 64 252 2.0 6.0 0.00 0.00 0.00 89 1016.2
20260508173018 64 136 1.0 4.0 0.00 0.00 0.00 89 1016.1
20260508171517 64 131 2.0 4.0 0.00 0.00 0.00 89 1016.1
20260508170017 64 149 0.0 3.0 0.00 0.00 0.00 90 1016.2
20260508164513 63 134 2.0 4.0 0.00 0.00 0.00 90 1016.2
20260508163010 63 134 0.0 3.0 0.00 0.00 0.00 91 1016.1
20260508161509 63 156 0.0 1.0 0.00 0.00 0.00 92 1016.0
20260508160012 62 129 1.0 4.0 0.00 0.00 0.00 92 1016.1
20260508154506 62 156 0.0 2.0 0.00 0.00 0.00 92 1016.0
20260508153005 62 157 1.0 2.0 0.00 0.00 0.00 93 1016.1
20260508151503 62 109 1.0 3.0 0.00 0.00 0.00 93 1016.2
20260508150004 62 109 0.0 3.0 0.00 0.00 0.00 93 1016.3
20260508143106 61 159 0.0 4.0 0.00 0.00 0.00 93 1016.1
20260508141606 61 165 1.0 3.0 0.00 0.00 0.00 93 1016.0
20260508140058 61 172 1.0 3.0 0.00 0.00 0.00 93 1015.9
20260508134556 61 162 1.0 6.0 0.00 0.00 0.00 93 1015.8
20260508133059 61 165 1.0 4.0 0.00 0.00 0.00 94 1015.9
20260508131556 61 82 1.0 4.0 0.00 0.00 0.00 94 1015.7
20260508130100 61 193 1.0 5.0 0.00 0.00 0.00 94 1015.6
20260508124553 61 125 1.0 4.0 0.00 0.00 0.00 94 1015.5
20260508123054 61 169 1.0 5.0 0.00 0.00 0.00 94 1015.4
20260508121605 61 105 2.0 4.0 0.00 0.00 0.00 94 1015.3
20260508120052 61 114 1.0 4.0 0.00 0.00 0.00 94 1015.2
20260508114554 61 136 0.0 4.0 0.00 0.00 0.00 94 1015.2
20260508113051 61 115 0.0 6.0 0.00 0.00 0.00 94 1015.2
20260508111550 61 82 2.0 6.0 0.00 0.00 0.00 94 1015.1
20260508110054 61 103 1.0 3.0 0.00 0.00 0.00 94 1015.1
20260508104548 61 91 3.0 5.0 0.00 0.00 0.00 94 1015.1
20260508103051 61 200 2.0 6.0 0.00 0.00 0.00 94 1015.1
20260508101547 61 99 0.0 3.0 0.00 0.00 0.00 94 1015.1
20260508100046 61 110 1.0 5.0 0.00 0.00 0.00 94 1015.2
20260508094557 61 150 0.0 3.0 0.00 0.00 0.00 94 1015.1
20260508093045 61 117 1.0 4.0 0.00 0.00 0.00 94 1015.2
20260508091543 61 96 0.0 2.0 0.00 0.00 0.00 93 1015.2
20260508090042 62 162 0.0 3.0 0.00 0.00 0.00 93 1015.4
20260508084539 61 120 1.0 4.0 0.00 0.00 0.00 93 1015.5
20260508083115 61 96 0.0 1.0 0.00 0.00 0.00 93 1015.6
20260508081541 61 93 1.0 3.0 0.00 0.00 0.00 93 1015.7
20260508080037 61 129 0.0 1.0 0.00 0.00 0.00 93 1015.8
20260508074537 61 134 0.0 2.0 0.00 0.00 0.00 93 1015.8
20260508073034 61 201 0.0 3.0 0.00 0.00 0.00 94 1016.0
20260508071535 61 210 0.0 3.0 0.00 0.00 0.00 94 1015.9
20260508070030 61 140 0.0 3.0 0.00 0.00 0.00 94 1015.9
20260508064544 61 215 0.0 4.0 0.00 0.00 0.00 94 1015.9
20260508063033 61 204 0.0 4.0 0.00 0.00 0.00 95 1015.8
20260508061531 61 257 1.0 3.0 0.00 0.00 0.00 95 1015.8
20260508060027 60 242 2.0 4.0 0.00 0.00 0.00 95 1015.8
20260508054526 61 239 1.0 4.0 0.00 0.00 0.00 95 1015.9
20260508053027 61 277 1.0 6.0 0.00 0.00 0.00 95 1015.9
20260508051527 61 248 1.0 5.0 0.00 0.00 0.00 95 1015.8
20260508050028 61 262 0.0 4.0 0.00 0.00 0.00 95 1015.8
20260508044524 61 238 2.0 5.0 0.00 0.00 0.00 95 1015.7
20260508043024 61 207 2.0 4.0 0.00 0.00 0.00 95 1015.5
20260508041522 62 187 1.0 5.0 0.00 0.00 0.00 94 1015.2
20260508040021 62 271 1.0 4.0 0.00 0.00 0.00 94 1015.0
20260508034521 62 249 1.0 7.0 0.00 0.00 0.00 94 1014.9
20260508033021 62 240 2.0 6.0 0.00 0.00 0.00 93 1014.7
20260508031519 62 233 1.0 6.0 0.00 0.00 0.00 93 1014.5
20260508030021 62 305 4.0 8.0 0.00 0.00 0.00 92 1014.3
20260508024525 62 214 4.0 8.0 0.00 0.00 0.00 92 1014.1
20260508023027 63 219 4.0 8.0 0.00 0.00 0.00 91 1013.9
20260508021518 63 255 2.0 9.0 0.00 0.00 0.00 90 1013.9
20260508020016 64 115 2.0 9.0 0.00 0.00 0.00 89 1013.8
20260508014516 64 257 3.0 8.0 0.00 0.00 0.00 89 1013.7